Regional Weather Roundup
Issued by NWS

Home | Current Version | Previous Version | Graphics & Text | Print | Product List | Glossary On
Versions: 1 2 3 4 5 6 7 8 9 10 11 12 13 14 15 16 17 18 19 20 21 22 23 24 25 26 27 28 29 30 31 32 33 34 35 36 37 38 39 40 41 42 43 44 45 46 47 48 49 50
000
ASUS43 KIND 281259
RWRIN

WEATHER ROUNDUP FOR INDIANA
NATIONAL WEATHER SERVICE INDIANAPOLIS IN
900 AM EDT MON JUL 28 2014

NOTE: "FAIR" INDICATES FEW OR NO CLOUDS BELOW 12,000 FEET WITH NO
SIGNIFICANT WEATHER AND/OR OBSTRUCTIONS TO VISIBILITY.

* - STATION DOES NOT REPORT WEATHER SUCH AS PRECIPITATION OR FOG.

+ - STATION NOT QUALITY CONTROLLED BY THE NATIONAL WEATHER SERVICE.
    USE DATA WITH CAUTION...ESPECIALLY DEWPOINT AND RELATIVE
    HUMIDITY OBSERVATIONS.

INZ001>003-010>013-019-020-281400-
NORTHWEST INDIANA

CITY           SKY/WX    TMP DP  RH WIND       PRES   REMARKS
GARY /AIRPORT/ CLOUDY    63  54  72 NW21      30.02R
KNOX *+        CLOUDY    61  54  77 N14       29.98R
MONTICELLO +   CLOUDY    62  55  80 N12G21    29.98R
VALPARAISO     CLOUDY    60  53  77 N10       30.01R

$$

LMZ046-743>745-281400-
SOUTHERN LAKE MICHIGAN

STATION/POSITION TIME  TEMP WIND        PRES
                       AIR  DIR/SP/G
                 (UTC) (F)  (DEG/KT/KT) (MB)
MICHIGAN CITY    1200   61  340/ 24/ 27   N/A

$$

INZ004-005-014>016-021>024-281400-
NORTH CENTRAL INDIANA

CITY           SKY/WX    TMP DP  RH WIND       PRES   REMARKS
GOSHEN         CLOUDY    61  56  83 NW12      29.95R
SOUTH BEND     CLOUDY    62  54  74 NW15      29.98R
WARSAW +       CLOUDY    61  55  82 NW9       29.95R

$$

INZ006>009-017-018-025>027-281400-
NORTHEAST INDIANA

CITY           SKY/WX    TMP DP  RH WIND       PRES   REMARKS
ANGOLA *+      CLOUDY    63  54  72 N7        29.92R
AUBURN +       CLOUDY    64  57  77 NW6       29.92R
FORT WAYNE     PTSUNNY   65  59  81 NW12      29.92R

$$

INZ028-029-035-036-043>045-051>053-281400-
WEST CENTRAL INDIANA

CITY           SKY/WX    TMP DP  RH WIND       PRES   REMARKS
GREENCASTLE +  SUNNY     63  54  72 N12       29.99R
LAFAYETTE      SUNNY     64  55  72 NW14G20   29.99R
TERRE HAUTE    SUNNY     65  56  72 N10       30.00R

$$

INZ030>032-037>040-046>048-054>057-064-065-281400-
CENTRAL INDIANA

CITY           SKY/WX    TMP DP  RH WIND       PRES   REMARKS
ANDERSON       CLOUDY    63  57  82 NW9       29.96
COLUMBUS       CLOUDY    64  59  82 NW7       29.96R
INDIANAPOLIS   CLOUDY    63  55  75 NW14      29.96R
-EAGLE CREEK   CLOUDY    63  56  78 NW10      29.96R
KOKOMO *+      CLOUDY    63  57  82 N12G17    29.96R
MT COMFORT *+  PTSUNNY   64  64 100 NW10      29.96R
SHELBYVILLE    CLOUDY    67  59  75 NW9       29.95R
ZIONSVILLE +   CLOUDY    63  55  77 NW12G18   29.97R

$$

INZ033-034-041-042-049-050-058-059-281400-
EAST CENTRAL INDIANA

CITY           SKY/WX    TMP DP  RH WIND       PRES   REMARKS
MUNCIE         CLOUDY    62  58  86 NW12      29.94R

$$

INZ060-061-067>069-081>083-085>088-281400-
SOUTHWEST INDIANA

CITY           SKY/WX    TMP DP  RH WIND       PRES   REMARKS
EVANSVILLE     SUNNY     68  60  75 NW9       30.01R

$$

INZ062-063-066-070>080-084-089>092-281400-
SOUTH CENTRAL AND SOUTHEAST INDIANA

CITY           SKY/WX    TMP DP  RH WIND       PRES   REMARKS
BLOOMINGTON    CLOUDY    64  56  75 N9        29.98R

$$



USA.gov is the U.S. government's official web portal to all federal, state and local government web resources and services.